Voltar ao catálogo

CZ-6A DEB

AtivoSSO
NORAD 56629·DEBRIS·🇨🇳 China

Lançado Nov 11, 2022 de Taiyuan Satellite Launch Center

Loading…

Próximas Passagens (próximas 24 horas)

TLE

AtualizadoSource: Space-Track

Época: Sep 12, 2026, 21:57 UTC

1 56629U 22151AFD 26255.91513438  .00005086  00000-0  98810-3 0  9991
2 56629  98.6202 311.8083 0071251  59.5193 301.3018 14.62003565179475

Acompanhe CZ-6A DEB em tempo real com AllMySat

Download on the App Store